Time,TemperatureF,DewpointF,PressureIn,WindDirection,WindDirectionDegrees,WindSpeedMPH,WindSpeedGustMPH,Humidity,HourlyPrecipIn,Conditions,Clouds,dailyrainin,SolarRadiationWatts/m^2,SoftwareType,DateUTC
2013-08-11 00:02:00,76.6,74.4,30.03,SE,137,0.0,0.0,93,0.00,,,0.00,0,Wunderground v.1.15,2013-08-11 05:02:00,
2013-08-11 00:07:00,76.5,74.3,30.03,SE,137,0.0,0.0,93,0.00,,,0.00,0,Wunderground v.1.15,2013-08-11 05:07:00,
2013-08-11 00:12:00,76.5,74.3,30.03,SE,137,0.0,0.0,93,0.00,,,0.00,0,Wunderground v.1.15,2013-08-11 05:12:00,
2013-08-11 00:18:00,76.3,74.1,30.03,SE,137,0.0,0.0,93,0.00,,,0.00,0,Wunderground v.1.15,2013-08-11 05:18:00,
2013-08-11 00:23:00,76.2,74.0,30.03,SE,137,0.0,0.0,93,0.00,,,0.00,0,Wunderground v.1.15,2013-08-11 05:23:00,
2013-08-11 00:28:00,76.2,74.0,30.03,SE,137,0.0,0.0,93,0.00,,,0.00,0,Wunderground v.1.15,2013-08-11 05:28:00,
2013-08-11 00:33:00,76.2,74.3,30.03,SE,137,0.0,0.0,94,0.00,,,0.00,0,Wunderground v.1.15,2013-08-11 05:33:00,
2013-08-11 00:39:00,76.1,74.2,30.03,SE,137,0.0,0.0,94,0.00,,,0.00,0,Wunderground v.1.15,2013-08-11 05:39:00,
2013-08-11 00:45:00,76.0,74.1,30.03,SE,137,0.0,0.0,94,0.00,,,0.00,0,Wunderground v.1.15,2013-08-11 05:45:00,
2013-08-11 00:50:00,76.0,74.1,30.03,SE,137,0.0,0.0,94,0.00,,,0.00,0,Wunderground v.1.15,2013-08-11 05:50:00,
2013-08-11 00:55:00,75.9,74.0,30.03,SE,137,0.0,0.0,94,0.00,,,0.00,0,Wunderground v.1.15,2013-08-11 05:55:00,
2013-08-11 01:00:00,75.8,73.9,30.03,SE,137,0.0,0.0,94,0.00,,,0.00,0,Wunderground v.1.15,2013-08-11 06:00:00,
2013-08-11 01:06:00,75.7,74.2,30.03,SE,137,0.0,0.0,95,0.00,,,0.00,0,Wunderground v.1.15,2013-08-11 06:06:00,
2013-08-11 01:12:00,75.7,74.2,30.03,SE,137,0.0,0.0,95,0.00,,,0.00,0,Wunderground v.1.15,2013-08-11 06:12:00,
2013-08-11 01:18:00,75.7,74.2,30.03,SE,137,0.0,0.0,95,0.00,,,0.00,0,Wunderground v.1.15,2013-08-11 06:18:00,
2013-08-11 01:23:00,75.7,74.2,30.02,SE,137,0.0,0.0,95,0.00,,,0.00,0,Wunderground v.1.15,2013-08-11 06:23:00,
2013-08-11 01:29:00,75.7,74.2,30.02,SE,137,0.0,0.0,95,0.00,,,0.00,0,Wunderground v.1.15,2013-08-11 06:29:00,
2013-08-11 01:34:00,75.7,74.2,30.02,SE,137,0.0,0.0,95,0.00,,,0.00,0,Wunderground v.1.15,2013-08-11 06:34:00,
2013-08-11 01:40:00,75.7,74.2,30.02,SE,137,0.0,0.0,95,0.00,,,0.00,0,Wunderground v.1.15,2013-08-11 06:40:00,
2013-08-11 01:45:00,75.6,74.1,30.01,SE,137,0.0,0.0,95,0.00,,,0.00,0,Wunderground v.1.15,2013-08-11 06:45:00,
2013-08-11 01:51:00,75.5,74.3,30.01,SE,137,0.0,1.0,96,0.00,,,0.00,0,Wunderground v.1.15,2013-08-11 06:51:00,
2013-08-11 01:56:00,75.5,74.3,30.01,SE,137,0.0,0.0,96,0.00,,,0.00,0,Wunderground v.1.15,2013-08-11 06:56:00,
2013-08-11 02:02:00,75.5,74.3,30.01,SE,137,0.0,0.0,96,0.00,,,0.00,0,Wunderground v.1.15,2013-08-11 07:02:00,
2013-08-11 02:07:00,75.4,74.2,30.01,SE,137,0.0,0.0,96,0.00,,,0.00,0,Wunderground v.1.15,2013-08-11 07:07:00,
2013-08-11 02:12:00,75.4,74.2,30.01,SE,137,0.0,0.0,96,0.00,,,0.00,0,Wunderground v.1.15,2013-08-11 07:12:00,
2013-08-11 02:18:00,75.4,74.2,30.02,SE,137,0.0,0.0,96,0.00,,,0.00,0,Wunderground v.1.15,2013-08-11 07:18:00,
2013-08-11 02:24:00,75.3,74.1,30.02,SE,137,0.0,0.0,96,0.00,,,0.00,0,Wunderground v.1.15,2013-08-11 07:24:00,
2013-08-11 02:29:00,75.4,74.2,30.02,SE,137,0.0,0.0,96,0.00,,,0.00,0,Wunderground v.1.15,2013-08-11 07:29:00,
2013-08-11 02:34:00,75.4,74.2,30.02,SE,137,0.0,0.0,96,0.00,,,0.00,0,Wunderground v.1.15,2013-08-11 07:34:00,
2013-08-11 02:39:00,75.4,74.2,30.02,SE,137,0.0,0.0,96,0.00,,,0.00,0,Wunderground v.1.15,2013-08-11 07:39:00,
2013-08-11 02:45:00,75.3,74.1,30.02,SE,137,0.0,0.0,96,0.00,,,0.00,0,Wunderground v.1.15,2013-08-11 07:45:00,
2013-08-11 02:50:00,75.3,74.1,30.02,SE,137,0.0,0.0,96,0.00,,,0.00,0,Wunderground v.1.15,2013-08-11 07:50:00,
2013-08-11 02:55:00,75.3,74.1,30.02,SE,137,0.0,0.0,96,0.00,,,0.00,0,Wunderground v.1.15,2013-08-11 07:55:00,
2013-08-11 03:02:00,75.2,74.0,30.02,SE,137,0.0,0.0,96,0.00,,,0.00,0,Wunderground v.1.15,2013-08-11 08:02:00,
2013-08-11 03:07:00,75.1,73.9,30.02,SE,137,0.0,0.0,96,0.00,,,0.00,0,Wunderground v.1.15,2013-08-11 08:07:00,
2013-08-11 03:12:00,75.1,73.9,30.02,SE,137,0.0,0.0,96,0.00,,,0.00,0,Wunderground v.1.15,2013-08-11 08:12:00,
2013-08-11 03:17:00,75.0,73.8,30.02,SE,137,0.0,0.0,96,0.00,,,0.00,0,Wunderground v.1.15,2013-08-11 08:17:00,
2013-08-11 03:22:00,75.0,73.8,30.03,SE,137,0.0,0.0,96,0.00,,,0.00,0,Wunderground v.1.15,2013-08-11 08:22:00,
2013-08-11 03:27:00,74.9,73.7,30.02,SE,137,0.0,0.0,96,0.00,,,0.00,0,Wunderground v.1.15,2013-08-11 08:27:00,
2013-08-11 03:33:00,74.8,73.6,30.03,SE,137,0.0,0.0,96,0.00,,,0.00,0,Wunderground v.1.15,2013-08-11 08:33:00,
2013-08-11 03:39:00,74.8,73.6,30.03,SE,137,0.0,0.0,96,0.00,,,0.00,0,Wunderground v.1.15,2013-08-11 08:39:00,
2013-08-11 03:44:00,74.7,73.5,30.03,SE,137,0.0,0.0,96,0.00,,,0.00,0,Wunderground v.1.15,2013-08-11 08:44:00,
2013-08-11 03:49:00,74.6,73.4,30.03,SE,137,0.0,0.0,96,0.00,,,0.00,0,Wunderground v.1.15,2013-08-11 08:49:00,
2013-08-11 03:54:00,74.6,73.4,30.03,SE,137,0.0,0.0,96,0.00,,,0.00,0,Wunderground v.1.15,2013-08-11 08:54:00,
2013-08-11 04:00:00,74.5,73.3,30.03,SE,137,0.0,0.0,96,0.00,,,0.00,0,Wunderground v.1.15,2013-08-11 09:00:00,
2013-08-11 04:06:00,74.4,73.2,30.03,SE,137,0.0,0.0,96,0.00,,,0.00,0,Wunderground v.1.15,2013-08-11 09:06:00,
2013-08-11 04:12:00,74.3,73.1,30.03,SE,137,0.0,0.0,96,0.00,,,0.00,0,Wunderground v.1.15,2013-08-11 09:12:00,
2013-08-11 04:17:00,74.3,73.1,30.03,SE,137,0.0,0.0,96,0.00,,,0.00,0,Wunderground v.1.15,2013-08-11 09:17:00,
2013-08-11 04:22:00,74.2,73.0,30.03,SE,137,0.0,0.0,96,0.00,,,0.00,0,Wunderground v.1.15,2013-08-11 09:22:00,
2013-08-11 04:28:00,74.2,73.0,30.04,SE,137,0.0,0.0,96,0.00,,,0.00,0,Wunderground v.1.15,2013-08-11 09:28:00,
2013-08-11 04:33:00,74.1,72.9,30.04,SE,137,0.0,0.0,96,0.00,,,0.00,0,Wunderground v.1.15,2013-08-11 09:33:00,
2013-08-11 04:39:00,74.2,73.0,30.04,SE,137,0.0,0.0,96,0.00,,,0.00,0,Wunderground v.1.15,2013-08-11 09:39:00,
2013-08-11 04:46:00,74.2,73.0,30.04,SE,137,0.0,0.0,96,0.00,,,0.00,0,Wunderground v.1.15,2013-08-11 09:46:00,
2013-08-11 04:51:00,74.2,73.0,30.04,SE,137,0.0,0.0,96,0.00,,,0.00,0,Wunderground v.1.15,2013-08-11 09:51:00,
2013-08-11 04:57:00,74.2,73.0,30.04,SE,137,0.0,0.0,96,0.00,,,0.00,0,Wunderground v.1.15,2013-08-11 09:57:00,
2013-08-11 05:02:00,74.3,73.1,30.04,SE,137,0.0,0.0,96,0.00,,,0.00,0,Wunderground v.1.15,2013-08-11 10:02:00,
2013-08-11 05:08:00,74.3,73.1,30.04,SE,137,0.0,0.0,96,0.00,,,0.00,0,Wunderground v.1.15,2013-08-11 10:08:00,
2013-08-11 05:13:00,74.4,73.2,30.04,SE,137,0.0,0.0,96,0.00,,,0.00,0,Wunderground v.1.15,2013-08-11 10:13:00,
2013-08-11 05:19:00,74.3,73.1,30.04,SE,137,0.0,0.0,96,0.00,,,0.00,0,Wunderground v.1.15,2013-08-11 10:19:00,
2013-08-11 05:27:00,74.3,73.1,30.05,SE,137,0.0,0.0,96,0.00,,,0.00,0,Wunderground v.1.15,2013-08-11 10:27:00,
2013-08-11 05:32:00,74.3,73.1,30.04,SE,137,0.0,0.0,96,0.00,,,0.00,0,Wunderground v.1.15,2013-08-11 10:32:00,
2013-08-11 05:38:00,74.4,73.2,30.05,SE,137,0.0,0.0,96,0.00,,,0.00,0,Wunderground v.1.15,2013-08-11 10:38:00,
2013-08-11 05:44:00,74.5,73.3,30.05,SE,137,0.0,0.0,96,0.00,,,0.00,0,Wunderground v.1.15,2013-08-11 10:44:00,
2013-08-11 05:49:00,74.6,73.4,30.05,SE,137,0.0,0.0,96,0.00,,,0.00,0,Wunderground v.1.15,2013-08-11 10:49:00,
2013-08-11 05:54:00,74.4,73.2,30.05,SE,137,0.0,0.0,96,0.00,,,0.00,0,Wunderground v.1.15,2013-08-11 10:54:00,
2013-08-11 06:00:00,74.2,73.0,30.05,SE,137,0.0,0.0,96,0.00,,,0.00,0,Wunderground v.1.15,2013-08-11 11:00:00,
2013-08-11 06:05:00,74.1,72.9,30.05,SE,137,0.0,0.0,96,0.00,,,0.00,0,Wunderground v.1.15,2013-08-11 11:05:00,
2013-08-11 06:10:00,74.2,73.0,30.05,SE,137,0.0,0.0,96,0.00,,,0.00,0,Wunderground v.1.15,2013-08-11 11:10:00,
2013-08-11 06:15:00,74.4,73.2,30.05,SE,137,0.0,0.0,96,0.00,,,0.00,0,Wunderground v.1.15,2013-08-11 11:15:00,
2013-08-11 06:20:00,74.6,73.4,30.05,SE,137,0.0,0.0,96,0.00,,,0.00,0,Wunderground v.1.15,2013-08-11 11:20:00,
2013-08-11 06:26:00,74.7,73.2,30.05,SE,137,0.0,0.0,95,0.00,,,0.00,0,Wunderground v.1.15,2013-08-11 11:26:00,
2013-08-11 06:31:00,74.8,73.3,30.05,SE,137,0.0,0.0,95,0.00,,,0.00,5,Wunderground v.1.15,2013-08-11 11:31:00,
2013-08-11 06:37:00,74.7,73.2,30.05,SE,137,0.0,0.0,95,0.00,,,0.00,9,Wunderground v.1.15,2013-08-11 11:37:00,
2013-08-11 06:42:00,74.9,73.7,30.06,SE,137,0.0,0.0,96,0.00,,,0.00,12,Wunderground v.1.15,2013-08-11 11:42:00,
2013-08-11 06:48:00,74.9,73.7,30.06,SE,137,0.0,0.0,96,0.00,,,0.00,16,Wunderground v.1.15,2013-08-11 11:48:00,
2013-08-11 06:53:00,74.8,73.6,30.06,SE,137,0.0,0.0,96,0.00,,,0.00,18,Wunderground v.1.15,2013-08-11 11:53:00,
2013-08-11 06:58:00,74.9,73.7,30.06,SE,137,0.0,0.0,96,0.00,,,0.00,25,Wunderground v.1.15,2013-08-11 11:58:00,
2013-08-11 07:04:00,74.9,73.7,30.07,SE,137,0.0,0.0,96,0.00,,,0.00,37,Wunderground v.1.15,2013-08-11 12:04:00,
2013-08-11 07:09:00,74.9,73.7,30.07,SE,137,0.0,0.0,96,0.00,,,0.00,28,Wunderground v.1.15,2013-08-11 12:09:00,
2013-08-11 07:14:00,74.9,73.7,30.07,SE,137,0.0,0.0,96,0.00,,,0.00,28,Wunderground v.1.15,2013-08-11 12:14:00,
2013-08-11 07:19:00,74.9,73.7,30.07,SE,137,0.0,0.0,96,0.00,,,0.00,30,Wunderground v.1.15,2013-08-11 12:19:00,
2013-08-11 07:25:00,75.0,74.1,30.07,SE,137,0.0,0.0,97,0.00,,,0.00,33,Wunderground v.1.15,2013-08-11 12:25:00,
2013-08-11 07:30:00,75.1,74.2,30.07,SE,137,0.0,0.0,97,0.00,,,0.00,35,Wunderground v.1.15,2013-08-11 12:30:00,
2013-08-11 07:36:00,75.3,74.4,30.07,SE,137,0.0,0.0,97,0.00,,,0.00,72,Wunderground v.1.15,2013-08-11 12:36:00,
2013-08-11 07:43:00,75.8,74.9,30.07,SE,137,0.0,0.0,97,0.00,,,0.00,176,Wunderground v.1.15,2013-08-11 12:43:00,
2013-08-11 07:48:00,76.0,75.1,30.07,SE,137,0.0,0.0,97,0.00,,,0.00,190,Wunderground v.1.15,2013-08-11 12:48:00,
2013-08-11 07:53:00,76.4,75.5,30.07,SE,137,0.0,0.0,97,0.00,,,0.00,206,Wunderground v.1.15,2013-08-11 12:53:00,
2013-08-11 07:59:00,76.9,75.7,30.07,SE,137,0.0,0.0,96,0.00,,,0.00,227,Wunderground v.1.15,2013-08-11 12:59:00,
2013-08-11 08:04:00,77.3,75.8,30.07,SE,137,0.0,0.0,95,0.00,,,0.00,244,Wunderground v.1.15,2013-08-11 13:04:00,
2013-08-11 08:09:00,77.8,75.9,30.07,SE,137,0.0,0.0,94,0.00,,,0.00,264,Wunderground v.1.15,2013-08-11 13:09:00,
2013-08-11 08:15:00,78.4,76.2,30.07,SE,137,0.0,0.0,93,0.00,,,0.00,295,Wunderground v.1.15,2013-08-11 13:15:00,
2013-08-11 08:21:00,78.7,76.2,30.08,SE,137,0.0,0.0,92,0.00,,,0.00,309,Wunderground v.1.15,2013-08-11 13:21:00,
2013-08-11 08:26:00,79.2,76.3,30.08,SE,137,0.0,0.0,91,0.00,,,0.00,295,Wunderground v.1.15,2013-08-11 13:26:00,
2013-08-11 08:31:00,79.6,76.1,30.08,SE,137,0.0,0.0,89,0.00,,,0.00,339,Wunderground v.1.15,2013-08-11 13:31:00,
2013-08-11 08:37:00,80.0,76.1,30.08,SE,133,0.0,0.0,88,0.00,,,0.00,366,Wunderground v.1.15,2013-08-11 13:37:00,
2013-08-11 08:43:00,80.3,76.4,30.08,SE,137,0.0,0.0,88,0.00,,,0.00,376,Wunderground v.1.15,2013-08-11 13:43:00,
2013-08-11 08:48:00,80.6,76.7,30.08,SE,137,0.0,0.0,88,0.00,,,0.00,392,Wunderground v.1.15,2013-08-11 13:48:00,
2013-08-11 08:53:00,81.0,76.8,30.08,SE,137,0.0,0.0,87,0.00,,,0.00,411,Wunderground v.1.15,2013-08-11 13:53:00,
2013-08-11 08:58:00,81.4,76.8,30.08,SE,137,0.0,0.0,86,0.00,,,0.00,427,Wunderground v.1.15,2013-08-11 13:58:00,
2013-08-11 09:04:00,82.0,77.0,30.08,SE,139,0.0,0.0,85,0.00,,,0.00,448,Wunderground v.1.15,2013-08-11 14:04:00,
2013-08-11 09:10:00,82.4,76.7,30.07,SE,139,0.0,0.0,83,0.00,,,0.00,476,Wunderground v.1.15,2013-08-11 14:10:00,
2013-08-11 09:15:00,82.6,76.5,30.08,SE,143,0.0,0.0,82,0.00,,,0.00,497,Wunderground v.1.15,2013-08-11 14:15:00,
2013-08-11 09:22:00,82.8,76.7,30.07,SE,142,0.0,0.0,82,0.00,,,0.00,545,Wunderground v.1.15,2013-08-11 14:22:00,
2013-08-11 09:27:00,83.0,76.9,30.07,SE,143,0.0,4.0,82,0.00,,,0.00,188,Wunderground v.1.15,2013-08-11 14:27:00,
2013-08-11 09:32:00,83.3,76.9,30.07,SE,143,0.0,0.0,81,0.00,,,0.00,218,Wunderground v.1.15,2013-08-11 14:32:00,
2013-08-11 09:37:00,83.5,77.1,30.07,SSE,152,0.0,1.0,81,0.00,,,0.00,615,Wunderground v.1.15,2013-08-11 14:37:00,
2013-08-11 09:42:00,83.8,76.6,30.08,SSE,151,0.0,0.0,79,0.00,,,0.00,703,Wunderground v.1.15,2013-08-11 14:42:00,
2013-08-11 09:47:00,84.3,77.1,30.08,SSE,152,0.0,0.0,79,0.00,,,0.00,721,Wunderground v.1.15,2013-08-11 14:47:00,
2013-08-11 09:54:00,84.4,76.8,30.08,SSE,148,0.0,0.0,78,0.00,,,0.00,193,Wunderground v.1.15,2013-08-11 14:54:00,
2013-08-11 09:59:00,84.3,77.1,30.07,SSE,152,0.0,0.0,79,0.00,,,0.00,323,Wunderground v.1.15,2013-08-11 14:59:00,
2013-08-11 10:06:00,84.3,75.9,30.08,SSE,160,1.0,1.0,76,0.00,,,0.00,826,Wunderground v.1.15,2013-08-11 15:06:00,
2013-08-11 10:11:00,84.3,76.3,30.08,SSE,161,1.0,1.0,77,0.00,,,0.00,796,Wunderground v.1.15,2013-08-11 15:11:00,
2013-08-11 10:16:00,84.6,77.0,30.08,South,173,0.0,0.0,78,0.00,,,0.00,260,Wunderground v.1.15,2013-08-11 15:16:00,
2013-08-11 10:22:00,84.7,76.7,30.08,South,188,0.0,0.0,77,0.00,,,0.00,877,Wunderground v.1.15,2013-08-11 15:22:00,
2013-08-11 10:27:00,84.8,76.0,30.08,SSE,149,0.0,4.0,75,0.00,,,0.00,225,Wunderground v.1.15,2013-08-11 15:27:00,
2013-08-11 10:32:00,84.6,75.4,30.08,SE,146,0.0,0.0,74,0.00,,,0.00,854,Wunderground v.1.15,2013-08-11 15:32:00,
2013-08-11 10:38:00,85.0,75.4,30.08,SE,139,0.0,0.0,73,0.00,,,0.00,817,Wunderground v.1.15,2013-08-11 15:38:00,
2013-08-11 10:43:00,85.3,74.8,30.08,SE,141,0.0,0.0,71,0.00,,,0.00,810,Wunderground v.1.15,2013-08-11 15:43:00,
2013-08-11 10:48:00,85.4,74.5,30.08,SE,141,0.0,0.0,70,0.00,,,0.00,849,Wunderground v.1.15,2013-08-11 15:48:00,
2013-08-11 10:53:00,85.6,75.1,30.08,ESE,108,0.0,2.0,71,0.00,,,0.00,882,Wunderground v.1.15,2013-08-11 15:53:00,
2013-08-11 10:58:00,86.1,75.2,30.08,SSE,154,0.0,2.0,70,0.00,,,0.00,888,Wunderground v.1.15,2013-08-11 15:58:00,
2013-08-11 11:05:00,86.3,75.8,30.08,ESE,120,0.0,0.0,71,0.00,,,0.00,877,Wunderground v.1.15,2013-08-11 16:05:00,
2013-08-11 11:10:00,86.6,74.3,30.08,ESE,121,1.0,6.0,67,0.00,,,0.00,882,Wunderground v.1.15,2013-08-11 16:10:00,
2013-08-11 11:16:00,86.5,75.1,30.08,SE,129,1.0,1.0,69,0.00,,,0.00,860,Wunderground v.1.15,2013-08-11 16:16:00,
2013-08-11 11:22:00,86.6,74.8,30.08,SSW,200,0.0,0.0,68,0.00,,,0.00,888,Wunderground v.1.15,2013-08-11 16:22:00,
2013-08-11 11:27:00,86.6,76.1,30.08,SSE,163,1.0,1.0,71,0.00,,,0.00,872,Wunderground v.1.15,2013-08-11 16:27:00,
2013-08-11 11:35:00,86.8,74.5,30.08,South,175,0.0,1.0,67,0.00,,,0.00,870,Wunderground v.1.15,2013-08-11 16:35:00,
2013-08-11 11:40:00,86.6,74.8,30.08,SE,135,0.0,1.0,68,0.00,,,0.00,155,Wunderground v.1.15,2013-08-11 16:40:00,
2013-08-11 11:46:00,86.3,74.0,30.07,SE,129,0.0,0.0,67,0.00,,,0.00,947,Wunderground v.1.15,2013-08-11 16:46:00,
2013-08-11 11:51:00,86.3,74.9,30.07,SE,129,0.0,0.0,69,0.00,,,0.00,919,Wunderground v.1.15,2013-08-11 16:51:00,
2013-08-11 11:56:00,86.7,74.4,30.06,ESE,115,0.0,0.0,67,0.00,,,0.00,919,Wunderground v.1.15,2013-08-11 16:56:00,
2013-08-11 12:01:00,87.0,72.9,30.06,ESE,117,0.0,0.0,63,0.00,,,0.00,967,Wunderground v.1.15,2013-08-11 17:01:00,
2013-08-11 12:07:00,87.4,74.2,30.06,SE,128,0.0,5.0,65,0.00,,,0.00,1004,Wunderground v.1.15,2013-08-11 17:07:00,
2013-08-11 12:12:00,87.1,73.9,30.06,South,181,1.0,2.0,65,0.00,,,0.00,178,Wunderground v.1.15,2013-08-11 17:12:00,
2013-08-11 12:18:00,87.1,74.8,30.05,South,181,1.0,2.0,67,0.00,,,0.00,965,Wunderground v.1.15,2013-08-11 17:18:00,
2013-08-11 12:24:00,87.4,74.2,30.05,SSW,198,1.0,5.0,65,0.00,,,0.00,1032,Wunderground v.1.15,2013-08-11 17:24:00,
2013-08-11 12:30:00,87.6,73.4,30.05,SSW,193,1.0,5.0,63,0.00,,,0.00,1058,Wunderground v.1.15,2013-08-11 17:30:00,
2013-08-11 12:35:00,88.1,73.9,30.05,SSW,193,1.0,1.0,63,0.00,,,0.00,984,Wunderground v.1.15,2013-08-11 17:35:00,
2013-08-11 12:41:00,88.7,74.0,30.05,SSW,194,0.0,1.0,62,0.00,,,0.00,1002,Wunderground v.1.15,2013-08-11 17:41:00,
2013-08-11 12:46:00,89.0,73.3,30.05,SE,127,0.0,2.0,60,0.00,,,0.00,1009,Wunderground v.1.15,2013-08-11 17:46:00,
2013-08-11 12:51:00,89.0,75.2,30.04,SE,136,1.0,2.0,64,0.00,,,0.00,1005,Wunderground v.1.15,2013-08-11 17:51:00,
2013-08-11 12:57:00,88.9,73.2,30.04,SE,140,1.0,1.0,60,0.00,,,0.00,1018,Wunderground v.1.15,2013-08-11 17:57:00,
2013-08-11 13:03:00,88.9,74.2,30.04,SE,145,1.0,1.0,62,0.00,,,0.00,840,Wunderground v.1.15,2013-08-11 18:03:00,
2013-08-11 13:08:00,88.7,74.0,30.05,SSE,147,0.0,1.0,62,0.00,,,0.00,251,Wunderground v.1.15,2013-08-11 18:08:00,
2013-08-11 13:14:00,89.1,74.4,30.04,SSW,205,0.0,0.0,62,0.00,,,0.00,1081,Wunderground v.1.15,2013-08-11 18:14:00,
2013-08-11 13:19:00,89.7,73.0,30.04,SSW,192,1.0,8.0,58,0.00,,,0.00,1060,Wunderground v.1.15,2013-08-11 18:19:00,
2013-08-11 13:25:00,89.8,73.0,30.04,SSE,157,1.0,1.0,58,0.00,,,0.00,1034,Wunderground v.1.15,2013-08-11 18:25:00,
2013-08-11 13:30:00,89.9,74.6,30.04,SSE,149,0.0,1.0,61,0.00,,,0.00,1060,Wunderground v.1.15,2013-08-11 18:30:00,
2013-08-11 13:35:00,90.2,73.4,30.04,SSE,167,0.0,5.0,58,0.00,,,0.00,214,Wunderground v.1.15,2013-08-11 18:35:00,
2013-08-11 13:41:00,89.9,75.6,30.05,SSE,163,1.0,5.0,63,0.00,,,0.00,1160,Wunderground v.1.15,2013-08-11 18:41:00,
2013-08-11 13:46:00,88.9,75.6,30.05,South,171,2.0,8.0,65,0.00,,,0.00,239,Wunderground v.1.15,2013-08-11 18:46:00,
2013-08-11 13:51:00,85.8,74.4,30.05,SW,217,4.0,11.0,69,0.00,,,0.00,209,Wunderground v.1.15,2013-08-11 18:51:00,
2013-08-11 13:56:00,83.9,74.3,30.05,South,184,5.0,8.0,73,0.00,,,0.00,179,Wunderground v.1.15,2013-08-11 18:56:00,
2013-08-11 14:04:00,82.7,74.4,30.05,South,179,1.0,2.0,76,0.00,,,0.00,223,Wunderground v.1.15,2013-08-11 19:04:00,
2013-08-11 14:09:00,82.1,73.4,30.05,SE,146,1.0,3.0,75,0.00,,,0.00,278,Wunderground v.1.15,2013-08-11 19:09:00,
2013-08-11 14:14:00,82.0,73.7,30.06,SSE,156,2.0,2.0,76,0.00,,,0.00,403,Wunderground v.1.15,2013-08-11 19:14:00,
2013-08-11 14:20:00,82.4,73.3,30.05,SSW,206,1.0,5.0,74,0.00,,,0.00,1153,Wunderground v.1.15,2013-08-11 19:20:00,
2013-08-11 14:25:00,83.0,73.4,30.05,South,177,2.0,6.0,73,0.00,,,0.00,399,Wunderground v.1.15,2013-08-11 19:25:00,
2013-08-11 14:30:00,83.0,73.9,30.05,South,190,2.0,9.0,74,0.00,,,0.00,577,Wunderground v.1.15,2013-08-11 19:30:00,
2013-08-11 14:37:00,83.1,73.9,30.05,SSE,168,1.0,2.0,74,0.00,,,0.00,687,Wunderground v.1.15,2013-08-11 19:37:00,
2013-08-11 14:42:00,83.3,74.5,30.05,South,171,0.0,0.0,75,0.00,,,0.00,524,Wunderground v.1.15,2013-08-11 19:42:00,
2013-08-11 14:48:00,83.3,74.9,30.04,SSE,167,0.0,1.0,76,0.00,,,0.00,777,Wunderground v.1.15,2013-08-11 19:48:00,
2013-08-11 14:53:00,83.0,74.6,30.04,SSW,207,0.0,0.0,76,0.00,,,0.00,248,Wunderground v.1.15,2013-08-11 19:53:00,
2013-08-11 14:58:00,82.5,74.2,30.04,SSE,160,0.0,9.0,76,0.00,,,0.00,886,Wunderground v.1.15,2013-08-11 19:58:00,
2013-08-11 15:04:00,82.7,74.8,30.04,South,181,1.0,4.0,77,0.00,,,0.00,893,Wunderground v.1.15,2013-08-11 20:04:00,
2013-08-11 15:10:00,83.0,75.0,30.04,SSW,213,2.0,7.0,77,0.00,,,0.00,872,Wunderground v.1.15,2013-08-11 20:10:00,
2013-08-11 15:15:00,83.1,75.5,30.04,WSW,250,1.0,6.0,78,0.00,,,0.00,635,Wunderground v.1.15,2013-08-11 20:15:00,
2013-08-11 15:21:00,83.6,76.0,30.03,South,172,1.0,6.0,78,0.00,,,0.00,854,Wunderground v.1.15,2013-08-11 20:21:00,
2013-08-11 15:27:00,84.4,76.0,30.03,SSE,151,0.0,3.0,76,0.00,,,0.00,858,Wunderground v.1.15,2013-08-11 20:27:00,
2013-08-11 15:32:00,84.6,76.2,30.04,SSW,200,1.0,1.0,76,0.00,,,0.00,863,Wunderground v.1.15,2013-08-11 20:32:00,
2013-08-11 15:37:00,85.1,76.3,30.03,South,173,0.0,1.0,75,0.00,,,0.00,856,Wunderground v.1.15,2013-08-11 20:37:00,
2013-08-11 15:42:00,85.2,75.6,30.03,South,182,1.0,1.0,73,0.00,,,0.00,851,Wunderground v.1.15,2013-08-11 20:42:00,
2013-08-11 15:48:00,85.1,75.9,30.03,ESE,121,2.0,2.0,74,0.00,,,0.00,826,Wunderground v.1.15,2013-08-11 20:48:00,
2013-08-11 15:54:00,85.1,76.3,30.02,SSE,163,1.0,4.0,75,0.00,,,0.00,809,Wunderground v.1.15,2013-08-11 20:54:00,
2013-08-11 15:59:00,85.3,76.1,30.02,SSW,200,1.0,4.0,74,0.00,,,0.00,789,Wunderground v.1.15,2013-08-11 20:59:00,
2013-08-11 16:05:00,85.5,75.4,30.02,SSW,193,1.0,3.0,72,0.00,,,0.00,768,Wunderground v.1.15,2013-08-11 21:05:00,
2013-08-11 16:10:00,86.0,75.5,30.02,South,179,1.0,3.0,71,0.00,,,0.00,747,Wunderground v.1.15,2013-08-11 21:10:00,
2013-08-11 16:16:00,86.3,75.4,30.02,South,179,0.0,1.0,70,0.00,,,0.00,724,Wunderground v.1.15,2013-08-11 21:16:00,
2013-08-11 16:23:00,86.5,76.8,30.02,SSE,164,1.0,1.0,73,0.00,,,0.00,700,Wunderground v.1.15,2013-08-11 21:23:00,
2013-08-11 16:28:00,86.6,75.6,30.01,South,173,1.0,2.0,70,0.00,,,0.00,680,Wunderground v.1.15,2013-08-11 21:28:00,
2013-08-11 16:34:00,86.8,76.7,30.01,SSE,152,1.0,1.0,72,0.00,,,0.00,656,Wunderground v.1.15,2013-08-11 21:34:00,
2013-08-11 16:39:00,86.8,75.8,30.01,South,183,1.0,14.0,70,0.00,,,0.00,626,Wunderground v.1.15,2013-08-11 21:39:00,
2013-08-11 16:44:00,86.9,75.9,30.01,SW,218,1.0,1.0,70,0.00,,,0.00,612,Wunderground v.1.15,2013-08-11 21:44:00,
2013-08-11 16:50:00,86.3,75.8,30.01,South,169,1.0,7.0,71,0.00,,,0.00,555,Wunderground v.1.15,2013-08-11 21:50:00,
2013-08-11 16:55:00,86.4,75.9,30.02,SW,215,2.0,7.0,71,0.00,,,0.00,536,Wunderground v.1.15,2013-08-11 21:55:00,
2013-08-11 17:00:00,86.2,75.7,30.02,SSW,203,1.0,7.0,71,0.00,,,0.00,517,Wunderground v.1.15,2013-08-11 22:00:00,
2013-08-11 17:06:00,86.0,75.9,30.02,SSW,208,2.0,4.0,72,0.00,,,0.00,552,Wunderground v.1.15,2013-08-11 22:06:00,
2013-08-11 17:11:00,86.3,76.6,30.02,SSE,168,2.0,4.0,73,0.00,,,0.00,543,Wunderground v.1.15,2013-08-11 22:11:00,
2013-08-11 17:16:00,86.8,76.7,30.02,SW,214,0.0,1.0,72,0.00,,,0.00,547,Wunderground v.1.15,2013-08-11 22:16:00,
2013-08-11 17:21:00,86.7,76.6,30.02,SSW,207,0.0,4.0,72,0.00,,,0.00,559,Wunderground v.1.15,2013-08-11 22:21:00,
2013-08-11 17:27:00,86.7,76.2,30.02,SSW,208,1.0,1.0,71,0.00,,,0.00,598,Wunderground v.1.15,2013-08-11 22:27:00,
2013-08-11 17:32:00,86.9,76.8,30.02,South,185,0.0,0.0,72,0.00,,,0.00,526,Wunderground v.1.15,2013-08-11 22:32:00,
2013-08-11 17:38:00,87.1,76.5,30.02,South,187,0.0,0.0,71,0.00,,,0.00,489,Wunderground v.1.15,2013-08-11 22:38:00,
2013-08-11 17:43:00,86.9,75.9,30.02,SW,219,0.0,0.0,70,0.00,,,0.00,438,Wunderground v.1.15,2013-08-11 22:43:00,
2013-08-11 17:48:00,86.4,76.3,30.02,SSW,201,0.0,2.0,72,0.00,,,0.00,394,Wunderground v.1.15,2013-08-11 22:48:00,
2013-08-11 17:53:00,86.0,75.9,30.02,South,173,1.0,1.0,72,0.00,,,0.00,218,Wunderground v.1.15,2013-08-11 22:53:00,
2013-08-11 17:59:00,85.3,76.5,30.02,SW,225,1.0,2.0,75,0.00,,,0.00,114,Wunderground v.1.15,2013-08-11 22:59:00,
2013-08-11 18:04:00,84.9,76.5,30.02,SW,225,0.0,1.0,76,0.00,,,0.00,91,Wunderground v.1.15,2013-08-11 23:04:00,
2013-08-11 18:09:00,84.5,76.1,30.02,WSW,242,0.0,2.0,76,0.00,,,0.00,93,Wunderground v.1.15,2013-08-11 23:09:00,
2013-08-11 18:15:00,83.9,75.9,30.02,WSW,242,0.0,0.0,77,0.00,,,0.00,67,Wunderground v.1.15,2013-08-11 23:15:00,
2013-08-11 18:20:00,83.6,76.0,30.01,WSW,242,0.0,0.0,78,0.00,,,0.00,105,Wunderground v.1.15,2013-08-11 23:20:00,
2013-08-11 18:25:00,83.6,76.0,30.02,WSW,242,0.0,0.0,78,0.00,,,0.00,213,Wunderground v.1.15,2013-08-11 23:25:00,
2013-08-11 18:31:00,84.0,76.4,30.02,WSW,241,0.0,0.0,78,0.00,,,0.00,204,Wunderground v.1.15,2013-08-11 23:31:00,
2013-08-11 18:36:00,84.1,76.5,30.02,SW,233,0.0,0.0,78,0.00,,,0.00,188,Wunderground v.1.15,2013-08-11 23:36:00,
2013-08-11 18:42:00,84.3,76.7,30.02,SW,227,0.0,2.0,78,0.00,,,0.00,160,Wunderground v.1.15,2013-08-11 23:42:00,
2013-08-11 18:48:00,84.1,76.5,30.02,SW,222,0.0,2.0,78,0.00,,,0.00,72,Wunderground v.1.15,2013-08-11 23:48:00,
2013-08-11 18:53:00,83.7,76.5,30.02,SW,219,0.0,0.0,79,0.00,,,0.00,54,Wunderground v.1.15,2013-08-11 23:53:00,
2013-08-11 19:00:00,83.4,76.2,30.02,SW,219,0.0,0.0,79,0.00,,,0.00,39,Wunderground v.1.15,2013-08-12 00:00:00,
2013-08-11 19:05:00,83.2,76.4,30.03,SW,219,0.0,0.0,80,0.00,,,0.00,39,Wunderground v.1.15,2013-08-12 00:05:00,
2013-08-11 19:12:00,83.1,76.7,30.03,SW,219,0.0,0.0,81,0.00,,,0.00,26,Wunderground v.1.15,2013-08-12 00:12:00,
2013-08-11 19:18:00,82.9,76.5,30.03,SW,219,0.0,0.0,81,0.00,,,0.00,21,Wunderground v.1.15,2013-08-12 00:18:00,
2013-08-11 19:23:00,82.7,76.6,30.05,SW,219,0.0,0.0,82,0.00,,,0.00,18,Wunderground v.1.15,2013-08-12 00:23:00,
2013-08-11 19:28:00,82.5,76.1,30.05,SW,219,0.0,0.0,81,0.00,,,0.00,11,Wunderground v.1.15,2013-08-12 00:28:00,
2013-08-11 19:34:00,82.3,76.3,30.04,SW,219,0.0,0.0,82,0.00,,,0.00,9,Wunderground v.1.15,2013-08-12 00:34:00,
2013-08-11 19:40:00,82.0,76.3,30.04,SW,219,0.0,0.0,83,0.00,,,0.00,7,Wunderground v.1.15,2013-08-12 00:40:00,
2013-08-11 19:46:00,81.7,76.4,30.05,SW,219,0.0,0.0,84,0.00,,,0.00,0,Wunderground v.1.15,2013-08-12 00:46:00,
2013-08-11 19:51:00,81.5,76.2,30.05,SW,219,0.0,0.0,84,0.00,,,0.00,0,Wunderground v.1.15,2013-08-12 00:51:00,
2013-08-11 19:57:00,81.2,76.3,30.05,SW,219,0.0,0.0,85,0.00,,,0.00,0,Wunderground v.1.15,2013-08-12 00:57:00,
2013-08-11 20:03:00,81.0,76.1,30.05,SW,219,0.0,0.0,85,0.00,,,0.00,0,Wunderground v.1.15,2013-08-12 01:03:00,
2013-08-11 20:08:00,80.7,76.1,30.05,SW,219,0.0,0.0,86,0.00,,,0.00,0,Wunderground v.1.15,2013-08-12 01:08:00,
2013-08-11 20:13:00,80.5,75.9,30.06,SW,219,0.0,0.0,86,0.00,,,0.00,0,Wunderground v.1.15,2013-08-12 01:13:00,
2013-08-11 20:18:00,80.3,76.1,30.06,SW,219,0.0,0.0,87,0.00,,,0.00,0,Wunderground v.1.15,2013-08-12 01:18:00,
2013-08-11 20:24:00,80.1,75.9,30.06,SW,219,0.0,0.0,87,0.00,,,0.00,0,Wunderground v.1.15,2013-08-12 01:24:00,
2013-08-11 20:31:00,79.8,75.9,30.06,SW,219,0.0,0.0,88,0.00,,,0.00,0,Wunderground v.1.15,2013-08-12 01:31:00,
2013-08-11 20:36:00,79.5,75.6,30.06,SW,219,0.0,0.0,88,0.00,,,0.00,0,Wunderground v.1.15,2013-08-12 01:36:00,
2013-08-11 20:41:00,79.2,75.7,30.06,SW,219,0.0,0.0,89,0.00,,,0.00,0,Wunderground v.1.15,2013-08-12 01:41:00,
2013-08-11 20:47:00,78.9,75.4,30.06,SW,219,0.0,0.0,89,0.00,,,0.00,0,Wunderground v.1.15,2013-08-12 01:47:00,
2013-08-11 20:52:00,78.7,75.5,30.06,SW,219,0.0,0.0,90,0.00,,,0.00,0,Wunderground v.1.15,2013-08-12 01:52:00,
2013-08-11 20:57:00,78.6,75.4,30.06,SW,219,0.0,0.0,90,0.00,,,0.00,0,Wunderground v.1.15,2013-08-12 01:57:00,
2013-08-11 21:03:00,78.4,75.6,30.06,SW,219,0.0,0.0,91,0.00,,,0.00,0,Wunderground v.1.15,2013-08-12 02:03:00,
2013-08-11 21:08:00,78.3,75.5,30.06,SW,219,0.0,0.0,91,0.00,,,0.00,0,Wunderground v.1.15,2013-08-12 02:08:00,
2013-08-11 21:15:00,78.2,75.7,30.06,SW,219,0.0,0.0,92,0.00,,,0.00,0,Wunderground v.1.15,2013-08-12 02:15:00,
2013-08-11 21:20:00,78.1,75.6,30.06,SW,219,0.0,0.0,92,0.00,,,0.00,0,Wunderground v.1.15,2013-08-12 02:20:00,
2013-08-11 21:26:00,78.0,75.2,30.06,SW,219,0.0,0.0,91,0.00,,,0.00,0,Wunderground v.1.15,2013-08-12 02:26:00,
2013-08-11 21:31:00,78.0,75.2,30.06,SW,219,0.0,0.0,91,0.00,,,0.00,0,Wunderground v.1.15,2013-08-12 02:31:00,
2013-08-11 21:36:00,78.0,75.2,30.06,SW,219,0.0,0.0,91,0.00,,,0.00,0,Wunderground v.1.15,2013-08-12 02:36:00,
2013-08-11 21:42:00,78.0,75.2,30.06,SW,219,0.0,0.0,91,0.00,,,0.00,0,Wunderground v.1.15,2013-08-12 02:42:00,
2013-08-11 21:47:00,77.9,75.1,30.06,SSW,198,0.0,3.0,91,0.00,,,0.00,0,Wunderground v.1.15,2013-08-12 02:47:00,
2013-08-11 21:52:00,77.8,75.0,30.05,SSW,195,0.0,0.0,91,0.00,,,0.00,0,Wunderground v.1.15,2013-08-12 02:52:00,
2013-08-11 21:58:00,77.8,74.6,30.05,SSW,194,0.0,0.0,90,0.00,,,0.00,0,Wunderground v.1.15,2013-08-12 02:58:00,
2013-08-11 22:03:00,77.7,74.5,30.05,SSW,194,0.0,0.0,90,0.00,,,0.00,0,Wunderground v.1.15,2013-08-12 03:03:00,
2013-08-11 22:08:00,77.7,74.5,30.05,SSW,194,0.0,0.0,90,0.00,,,0.00,0,Wunderground v.1.15,2013-08-12 03:08:00,
2013-08-11 22:14:00,77.8,74.6,30.05,SSW,194,0.0,0.0,90,0.00,,,0.00,0,Wunderground v.1.15,2013-08-12 03:14:00,
2013-08-11 22:19:00,77.8,74.6,30.05,SSW,194,0.0,0.0,90,0.00,,,0.00,0,Wunderground v.1.15,2013-08-12 03:19:00,
2013-08-11 22:25:00,77.8,74.6,30.05,SSW,194,0.0,0.0,90,0.00,,,0.00,0,Wunderground v.1.15,2013-08-12 03:25:00,
2013-08-11 22:32:00,77.7,74.5,30.05,SSW,194,0.0,0.0,90,0.00,,,0.00,0,Wunderground v.1.15,2013-08-12 03:32:00,
2013-08-11 22:38:00,77.6,74.8,30.04,SSW,194,0.0,0.0,91,0.00,,,0.00,0,Wunderground v.1.15,2013-08-12 03:38:00,
2013-08-11 22:43:00,77.5,74.7,30.04,SSW,194,0.0,0.0,91,0.00,,,0.00,0,Wunderground v.1.15,2013-08-12 03:43:00,
2013-08-11 22:49:00,77.5,74.7,30.04,SSW,194,0.0,0.0,91,0.00,,,0.00,0,Wunderground v.1.15,2013-08-12 03:49:00,
2013-08-11 22:54:00,77.3,74.8,30.04,SSW,194,0.0,0.0,92,0.00,,,0.00,0,Wunderground v.1.15,2013-08-12 03:54:00,
2013-08-11 22:59:00,77.3,74.8,30.05,SSW,194,0.0,0.0,92,0.00,,,0.00,0,Wunderground v.1.15,2013-08-12 03:59:00,
2013-08-11 23:01:00,77.2,74.7,30.05,SSW,194,0.0,0.0,92,0.00,,,0.00,0,Wunderground v.1.15,2013-08-12 04:01:00,
2013-08-11 23:02:00,77.2,74.7,30.05,SSW,194,0.0,0.0,92,0.00,,,0.00,0,Wunderground v.1.15,2013-08-12 04:02:00,
2013-08-11 23:03:00,77.2,74.7,30.05,SSW,194,0.0,0.0,92,0.00,,,0.00,0,Wunderground v.1.15,2013-08-12 04:03:00,
2013-08-11 23:04:00,77.2,74.7,30.05,SSW,193,0.0,0.0,92,0.00,,,0.00,0,Wunderground v.1.15,2013-08-12 04:04:00,
2013-08-11 23:09:00,77.1,74.6,30.04,SSW,193,0.0,0.0,92,0.00,,,0.00,0,Wunderground v.1.15,2013-08-12 04:09:00,
2013-08-11 23:14:00,77.0,74.8,30.04,SSE,167,0.0,0.0,93,0.00,,,0.00,0,Wunderground v.1.15,2013-08-12 04:14:00,
2013-08-11 23:19:00,76.9,74.7,30.04,SSE,167,0.0,0.0,93,0.00,,,0.00,0,Wunderground v.1.15,2013-08-12 04:19:00,
2013-08-11 23:25:00,76.9,74.7,30.05,South,184,0.0,0.0,93,0.00,,,0.00,0,Wunderground v.1.15,2013-08-12 04:25:00,
2013-08-11 23:30:00,76.8,74.9,30.04,SSE,166,0.0,0.0,94,0.00,,,0.00,0,Wunderground v.1.15,2013-08-12 04:30:00,
2013-08-11 23:35:00,76.8,74.9,30.05,SSE,168,0.0,0.0,94,0.00,,,0.00,0,Wunderground v.1.15,2013-08-12 04:35:00,
2013-08-11 23:40:00,76.8,74.9,30.05,SE,144,0.0,0.0,94,0.00,,,0.00,0,Wunderground v.1.15,2013-08-12 04:40:00,
2013-08-11 23:46:00,76.8,74.9,30.05,SSE,148,0.0,0.0,94,0.00,,,0.00,0,Wunderground v.1.15,2013-08-12 04:46:00,
2013-08-11 23:51:00,76.7,74.8,30.05,South,188,0.0,3.0,94,0.00,,,0.00,0,Wunderground v.1.15,2013-08-12 04:51:00,
2013-08-11 23:56:00,76.8,74.9,30.05,South,188,0.0,0.0,94,0.00,,,0.00,0,Wunderground v.1.15,2013-08-12 04:56:00,